SCP
0 0 0 0 0 0 -0 -0 -0 -0 0 0 0 0 0 -0 -0 0 0 0 -0 -0 -0 -0 -0 -0 -0 -0 -0 -0 -0 -0 -0 -0 -0 -0 -0 -0 -0 -0 -0 -0 -0
-0 -0 -0 0 -0 -0 -0 -0 -0 -0 0 0 0 0 0 -0 0 0 0 0 -0 -0 -0 -0 -0 -0 -0 -0 -0 -0 -0 -0 0 -0 -0 -0 -0 -0 -0 -0 -0 -0 -0
-0 -0 -0 -0 -0 -0 -0 -0 -0 -0 -0 -0 0 -0 -0 -0 -0 -0 -0 -0 -0 -0 -0 -0 -0 -0 -0 -0 -0 -0 -0 -0 0 0 -0 -0 -0 -0 -0 -0 -0 -0 -0
-0 -0 -0 -0 -0 -0 -0 -0 -0 -0 -0 -0 -0 -0 -0 -0 -0 -0 -0 -0 -0 -0 -0 -0 -0 -0 -0 -0 -0 -0 -0 0 0 -0 0 -0 -0 -0 -0 -0 -0 -0 -0
-0 -0 -0 -0 -0 -0 -0 -0 -0 -0 -0 -0 -0 -0 -0 -0 -0 -0 -0 -0 -0 -0 -0 -0 -0 -0 -0 -0 -0 -0 0 0 -0 -0 -0 -0 -0 -0 -0 -0 -0 -0 -0
-0 -0 -0 -0 -0 -0 -0 -0 -0 -0 -0 -0 -0 -0 -0 -0 -0 -0 -0 -0 -0 -0 -0 -0 -0 -0 -0 -0 -0 -0 -0 0 -0 -0 -0 -0 -0 -0 -0 -0 -0 -0 -0
-0 -0 -0 -0 -0 -0 -0 -0 -0 -0 -0 -0 -0 -0 -0 -0 -0 -0 -0 -0 -0 -0 -0 -0 -0 -0 -0 -0 -0 -0 -0 -0 -0 -0 -0 -0 -0 -0 -0 -0 -0 -0 -0
-0 -0 -0 -0 -0 -0 -0 -0 -0 -0 -0 -0 -0 -0 -0 -0 -0 -0 -0 -0 -0 -0 -0 -0 -0 -0 -0 -0 -0 -0 0 0 -0 -0 0 0 -0 -0 -0 -0 -0 -0 -0
-0 -0 -0 -0 -0 -0 -0 -0 -0 -0 -0 -0 -0 -0 -0 -0 -0 -0 -0 -0 -0 -0 -0 -0 -0 -0 -0 -0 -0 0 0 0 -0 0 0 0 -0 -0 -0 -0 -0 -0 -0
-0 -0 -0 -0 -0 -0 -0 -0 -0 -0 -0 -0 -0 -0 -0 -0 -0 -0 -0 -0 -0 -0 -0 -0 -0 -0 -0 -0 0 0 0 -0 -0 0 0 0 -0 -0 -0 -0 -0 -0 -0
-0 -0 -0 -0 -0 -0 -0 -0 -0 -0 -0 -0 -0 -0 -0 0 -0 -0 -0 -0 -0 -0 -0 -0 -0 -0 -0 -0 0 0 0 0 0 0 0 0 0 -0 -0 -0 -0 -0 -0
-0 -0 -0 0 0 0 0 -0 0 0 0 0 0 0 0 0 0 0 0 -0 -0 -0 -0 -0 -0 -0 0 0 0 0 0 0 0 0 0 0 0 -0 -0 -0 -0 -0 -0
-0 -0 -0 0 0 0 0 0 0 0 0 0 0 0 0 0 0 0 0 0 0 0 0 0 0 0 0 0 0 0 0 0 0 0 0 0 0 0 0 0 -0 0 0
-0 -0 -0 -0 0 0 0 0 0 0 0 0 0 0 0 0 0 0 0 0 0 0 0 0 0 0 0 0 0 0 0 0 0 0 0 0 0 0 0 0 0 0 0
-0 -0 0 0 0 0 0 0 0 0 0 0 0 0 0 0 0 0 0 0 0 0 0 0 0 0 0 0 0 0 0 0 0 0 0 0 0 0 0 0 0 0 0
0 0 0 0 0 0 0 0 0 0 0 0 0 0 0 0 0 0 0 0 0 0 0 0 0 0 0 0 0 0 0 0 0 0 0 0 0 0 0 0 0 0 0
0 0 0 0 0 0 0 0 0 0 0 0 0 0 0 0 0 0 0 0 0 0 0 0 0 0 0 0 0 0 0 0 0 0 0 0 0 0 0 0 0 0 0
0 0 0 0 0 0 0 0 0 0 0 0 0 0 0 0 0 0 0 0 0 0 0 0 0 0 0 0 0 0 0 0 0 0 0 0 0 0 0 0 0 0 0
0 0 0 0 0 0 0 0 0 0 0 0 0 0 0 0 0 0 0 0 0 0 0 0 0 0 0 0 0 0 0 0 0 0 0 0 0 0 0 0 0 0 0
0 0 0 0 0 0 0 0 0 0 0 0 0 0 0 0 0 0 0 0 0 0 0 0 0 0 0 0 0 0 0 0 0 0 0 0 0 0 0 0 0 0 0
0 0 0 0 0 0 0 0 0 0 0 0 0 0 0 0 0 0 0 0 0 0 0 0 0 0 0 0 0 0 0 0 0 0 0 0 0 0 0 0 0 0 0
0 0 0 0 0 0 0 0 0 0 0 0 0 0 0 0 0 0 0 0 0 0 0 0 0 0 0 0 0 0 0 0 0 0 0 0 0 0 0 0 0 0 0
0 0 0 0 0 0 0 0 0 0 0 0 0 0 0 0 0 0 0 0 0 0 0 0 0 0 0 0 0 0 0 0 0 0 0 0 0 0 0 0 0 0 0
0 0 0 0 0 0 0 0 0 0 0 0 0 0 0 0 0 0 0 0 0 0 0 0 0 0 0 0 0 0 0 0 0 0 0 0 0 0 0 0 0 0 0
0 0 0 0 0 0 0 0 0 0 0 0 0 0 0 0 0 0 0 0 0 0 0 0 0 0 0 0 0 0 0 0 0 0 0 0 0 0 0 0 0 0 0
0 0 0 0 0 0 0 0 0 0 0 0 0 0 0 0 0 0 0 0 0 0 0 0 0 0 0 0 0 0 0 0 0 0 0 0 0 0 0 0 0 0 0
Wind_Speed_500mb
34 29 30 24 20 20 17 18 18 19 20 23 21 20 20 20 19 19 28 30 23 35 30 27 33 33 32 32 31 31 32 31 32 28 22 23 25 27 31 36 42 44 48
32 31 30 26 24 21 16 15 15 17 22 23 24 23 22 22 22 24 31 31 25 34 26 26 31 30 34 34 32 33 35 35 35 36 30 28 26 26 24 26 30 32 38
37 35 33 27 25 21 18 16 14 17 19 21 23 24 23 21 21 21 26 31 30 32 26 22 28 28 30 29 31 36 39 42 50 45 42 40 36 31 30 27 25 22 25
35 34 33 30 27 24 18 14 14 16 17 18 21 22 21 20 21 21 22 27 35 25 20 23 25 26 28 29 34 38 38 42 49 42 41 41 42 42 36 29 29 27 25
35 31 33 32 29 25 20 14 15 14 15 18 19 19 19 18 18 18 20 22 35 26 20 19 23 23 26 29 33 36 41 51 45 42 42 39 45 44 43 37 34 32 30
33 32 34 33 29 25 21 15 12 12 13 15 16 17 16 15 16 17 16 16 20 23 20 19 21 21 24 28 32 33 42 48 39 41 44 47 42 42 41 48 47 47 50
36 35 36 33 30 27 24 20 14 13 13 13 14 14 14 13 15 15 16 16 15 12 14 18 19 21 24 27 29 31 38 43 38 42 47 47 43 46 43 47 47 45 49
34 35 38 34 32 28 25 22 18 15 14 13 12 12 12 13 14 15 15 15 14 14 16 18 19 21 24 26 28 29 37 39 37 38 39 41 40 41 49 43 42 42 40
35 36 35 37 35 31 27 24 23 19 16 13 11 10 11 13 15 15 16 16 15 16 17 18 18 19 21 23 27 28 32 37 35 36 31 29 33 32 35 33 33 32 31
42 36 34 34 38 35 32 28 25 23 20 16 13 10 10 14 17 18 17 17 17 17 18 19 19 19 20 23 26 28 32 33 32 36 39 36 33 34 35 33 33 29 36
42 39 36 38 36 35 33 31 26 22 22 21 18 13 12 13 15 17 18 18 17 17 18 19 20 21 21 23 24 21 19 30 35 39 34 32 37 39 42 38 37 35 35
44 42 41 42 41 38 36 32 27 27 24 26 25 18 8 8 9 11 14 15 15 14 15 17 19 20 22 24 23 22 26 28 35 40 38 38 38 33 30 28 25 26 31
43 43 44 42 41 40 41 39 36 34 31 33 33 24 18 15 12 13 9 4 4 9 8 12 16 18 19 19 19 23 25 22 34 41 42 32 27 27 27 28 26 39 35
47 46 47 44 45 44 44 45 41 40 40 40 38 31 26 24 19 20 19 12 10 7 5 4 8 13 16 17 18 21 23 26 40 47 47 41 32 33 36 40 34 33 37
49 51 52 57 61 54 51 40 43 46 46 43 44 37 37 34 27 28 24 20 18 14 13 10 13 13 15 17 19 20 24 28 32 38 39 44 35 32 32 34 32 34 33
53 55 53 56 62 59 58 55 53 45 45 50 52 50 46 42 37 31 29 28 25 24 24 24 19 18 18 19 20 23 25 27 30 35 35 31 28 23 28 31 29 30 31
58 53 58 63 63 62 64 58 60 58 52 47 53 55 54 52 45 41 38 36 34 34 32 32 28 21 19 20 21 26 28 28 28 29 29 25 16 13 20 25 27 27 28
55 58 61 69 69 70 66 62 63 57 65 65 53 50 53 56 50 51 48 46 42 42 40 37 33 24 21 27 29 32 32 30 29 27 24 21 18 14 9 7 6 16 25
58 61 68 71 74 74 71 69 67 68 68 68 68 61 57 59 55 55 57 53 53 54 47 41 38 32 28 35 34 36 35 33 31 27 22 18 15 12 9 6 4 6 11
63 68 69 74 76 77 75 74 72 72 76 79 81 72 70 68 64 62 63 62 62 61 52 50 50 42 34 38 42 40 37 35 31 28 24 20 18 15 12 8 6 5 6
69 72 75 75 79 79 81 80 79 80 82 78 78 87 76 78 72 68 70 70 56 65 63 56 53 54 48 50 47 42 36 34 32 29 26 24 22 20 15 11 9 8 6
70 74 77 80 80 81 82 80 76 72 77 77 80 79 81 80 79 80 73 75 62 69 63 64 63 62 55 55 56 46 30 28 33 33 31 30 27 23 19 16 13 9 6
74 76 76 80 83 83 81 77 72 71 72 79 77 82 87 85 85 82 77 75 81 80 73 72 77 68 58 61 64 33 21 19 38 36 36 34 31 28 23 18 13 8 5
70 72 79 80 82 83 81 81 82 82 77 72 70 75 82 83 88 87 82 82 78 84 81 71 82 79 63 69 71 65 35 31 26 24 41 41 37 33 27 22 16 12 8
58 60 68 77 80 81 83 82 84 82 73 67 67 72 76 76 79 85 84 81 87 76 85 73 94 86 74 78 72 78 56 38 28 23 27 45 47 41 34 29 23 17 14
44 52 56 67 73 75 78 80 84 79 74 69 72 75 78 75 79 81 84 83 77 86 89 90 90 91 70 79 79 80 74 59 47 33 27 32 41 43 39 35 30 24 19
Wind_Direction_500mb
172 175 165 156 153 146 131 113 102 90 77 71 71 89 100 108 117 116 96 96 97 93 94 88 90 87 89 89 89 87 88 90 87 80 81 86 87 87 88 86 82 76 75
175 175 174 165 160 151 134 114 99 87 80 77 74 79 94 100 102 101 103 100 98 96 105 99 90 92 91 89 91 91 91 91 83 71 73 80 84 87 86 85 88 89 84
160 179 173 167 162 156 150 137 109 87 85 82 84 87 93 97 101 99 100 101 102 104 102 97 95 96 90 86 88 91 91 92 81 71 66 65 69 77 85 83 81 86 91
161 171 172 170 168 167 161 141 117 102 95 91 86 84 85 91 97 103 103 104 96 105 110 100 97 90 84 85 89 90 90 90 87 78 71 68 67 68 71 77 76 72 78
164 169 186 173 173 172 168 157 129 120 110 101 93 84 81 85 92 100 107 112 116 117 118 118 94 87 85 89 92 92 89 77 74 79 87 75 71 67 67 69 72 69 67
166 170 185 176 176 178 177 173 150 131 116 112 101 88 86 89 94 94 99 106 115 125 127 91 91 87 86 91 92 92 91 83 84 78 64 69 71 70 70 68 65 66 65
172 178 182 181 182 183 184 186 172 153 141 132 112 96 84 85 91 97 99 102 109 118 92 93 93 91 92 92 94 94 94 97 77 83 91 80 75 69 69 69 69 71 74
183 187 185 185 187 190 190 191 188 175 162 152 129 108 90 89 92 97 102 102 102 96 95 95 95 94 94 95 94 93 92 85 83 92 91 93 91 89 87 83 83 83 80
193 187 187 189 190 193 194 196 194 188 179 170 151 122 98 92 91 93 96 98 102 103 103 101 98 97 98 97 93 95 94 88 84 85 83 96 87 90 98 95 92 85 86
195 189 185 191 196 198 196 199 199 195 192 188 175 154 126 112 100 95 97 98 102 105 105 103 101 98 99 99 102 103 101 105 94 88 79 74 79 81 81 82 84 83 77
198 194 192 191 194 197 202 200 200 202 201 198 191 175 148 135 120 104 93 88 88 94 100 103 103 103 105 109 114 113 101 100 101 97 86 85 82 89 93 92 88 81 72
199 200 200 199 197 198 199 199 200 199 211 212 203 197 191 171 151 132 107 90 88 90 101 109 113 118 122 120 118 109 100 113 117 107 102 103 103 105 107 101 93 78 64
201 203 202 203 201 202 207 205 205 210 214 212 205 200 219 220 213 186 184 150 116 116 99 125 136 140 141 137 131 120 113 106 119 117 112 111 112 109 107 100 86 77 69
205 206 204 203 208 211 216 213 209 218 210 213 208 213 216 226 229 224 212 219 204 191 140 158 169 159 155 152 146 140 130 123 128 118 116 108 105 100 90 85 78 73 70
210 208 212 207 208 209 213 213 217 222 219 218 222 229 227 223 225 226 221 224 223 219 239 245 216 200 181 171 163 158 151 141 138 139 137 132 124 117 96 86 78 77 70
213 212 211 215 219 212 216 219 227 224 228 228 226 223 225 226 224 232 231 227 226 217 216 206 208 212 198 188 178 167 161 152 145 146 150 153 149 127 99 92 87 78 72
218 216 215 220 220 218 217 219 221 226 231 233 229 227 227 227 229 227 235 229 229 223 218 222 211 214 223 201 190 176 171 164 159 154 153 157 162 152 121 97 87 80 73
220 218 220 226 225 224 222 221 224 221 231 228 228 226 233 231 232 232 231 236 234 226 225 221 221 221 230 194 193 184 176 171 168 168 168 166 161 154 153 136 119 89 82
221 222 224 229 228 229 227 227 229 229 230 231 233 237 237 237 238 237 236 235 234 228 225 225 226 221 236 208 197 188 179 176 177 177 176 178 177 173 179 175 132 95 94
226 227 228 230 231 230 230 230 233 232 234 234 228 232 235 240 240 238 239 241 241 228 230 231 230 219 219 209 199 189 184 182 183 184 185 188 189 192 195 190 163 132 103
232 231 230 228 231 228 229 231 232 234 239 237 235 228 232 235 239 237 239 242 246 224 230 235 223 213 209 207 205 184 183 189 193 194 196 198 200 202 201 193 186 177 155
237 236 233 232 232 231 233 235 235 236 242 242 238 232 227 232 235 237 238 243 249 225 237 242 221 206 211 217 209 185 179 197 202 203 205 208 209 209 206 200 194 185 163
236 234 237 237 235 235 233 233 233 235 239 242 240 234 231 228 232 232 235 239 250 231 239 229 221 224 225 214 213 192 178 202 205 213 214 215 215 215 211 207 202 198 190
250 244 239 237 235 235 234 232 234 239 242 248 244 238 235 234 230 234 231 232 241 223 245 230 229 224 228 225 210 206 202 204 179 190 218 218 219 220 219 215 213 213 217
247 244 238 235 233 232 232 233 236 240 242 244 241 241 236 233 226 230 234 233 229 236 243 238 223 231 226 223 227 214 207 209 211 203 201 213 217 219 220 219 220 221 226
234 238 236 232 231 229 231 232 235 238 237 238 242 241 238 233 230 231 236 234 233 242 239 236 230 227 229 230 225 222 219 219 222 215 218 221 216 219 219 221 222 225 230
Wind_Speed_850mb
34 29 30 24 20 20 17 18 18 19 20 23 21 20 20 20 19 19 28 30 23 35 30 27 33 33 32 32 31 31 32 31 32 28 22 23 25 27 31 36 42 44 48
32 31 30 26 24 21 16 15 15 17 22 23 24 23 22 22 22 24 31 31 25 34 26 26 31 30 34 34 32 33 35 35 35 36 30 28 26 26 24 26 30 32 38
37 35 33 27 25 21 18 16 14 17 19 21 23 24 23 21 21 21 26 31 30 32 26 22 28 28 30 29 31 36 39 42 50 45 42 40 36 31 30 27 25 22 25
35 34 33 30 27 24 18 14 14 16 17 18 21 22 21 20 21 21 22 27 35 25 20 23 25 26 28 29 34 38 38 42 49 42 41 41 42 42 36 29 29 27 25
35 31 33 32 29 25 20 14 15 14 15 18 19 19 19 18 18 18 20 22 35 26 20 19 23 23 26 29 33 36 41 51 45 42 42 39 45 44 43 37 34 32 30
33 32 34 33 29 25 21 15 12 12 13 15 16 17 16 15 16 17 16 16 20 23 20 19 21 21 24 28 32 33 42 48 39 41 44 47 42 42 41 48 47 47 50
36 35 36 33 30 27 24 20 14 13 13 13 14 14 14 13 15 15 16 16 15 12 14 18 19 21 24 27 29 31 38 43 38 42 47 47 43 46 43 47 47 45 49
34 35 38 34 32 28 25 22 18 15 14 13 12 12 12 13 14 15 15 15 14 14 16 18 19 21 24 26 28 29 37 39 37 38 39 41 40 41 49 43 42 42 40
35 36 35 37 35 31 27 24 23 19 16 13 11 10 11 13 15 15 16 16 15 16 17 18 18 19 21 23 27 28 32 37 35 36 31 29 33 32 35 33 33 32 31
42 36 34 34 38 35 32 28 25 23 20 16 13 10 10 14 17 18 17 17 17 17 18 19 19 19 20 23 26 28 32 33 32 36 39 36 33 34 35 33 33 29 36
42 39 36 38 36 35 33 31 26 22 22 21 18 13 12 13 15 17 18 18 17 17 18 19 20 21 21 23 24 21 19 30 35 39 34 32 37 39 42 38 37 35 35
44 42 41 42 41 38 36 32 27 27 24 26 25 18 8 8 9 11 14 15 15 14 15 17 19 20 22 24 23 22 26 28 35 40 38 38 38 33 30 28 25 26 31
43 43 44 42 41 40 41 39 36 34 31 33 33 24 18 15 12 13 9 4 4 9 8 12 16 18 19 19 19 23 25 22 34 41 42 32 27 27 27 28 26 39 35
47 46 47 44 45 44 44 45 41 40 40 40 38 31 26 24 19 20 19 12 10 7 5 4 8 13 16 17 18 21 23 26 40 47 47 41 32 33 36 40 34 33 37
49 51 52 57 61 54 51 40 43 46 46 43 44 37 37 34 27 28 24 20 18 14 13 10 13 13 15 17 19 20 24 28 32 38 39 44 35 32 32 34 32 34 33
53 55 53 56 62 59 58 55 53 45 45 50 52 50 46 42 37 31 29 28 25 24 24 24 19 18 18 19 20 23 25 27 30 35 35 31 28 23 28 31 29 30 31
58 53 58 63 63 62 64 58 60 58 52 47 53 55 54 52 45 41 38 36 34 34 32 32 28 21 19 20 21 26 28 28 28 29 29 25 16 13 20 25 27 27 28
55 58 61 69 69 70 66 62 63 57 65 65 53 50 53 56 50 51 48 46 42 42 40 37 33 24 21 27 29 32 32 30 29 27 24 21 18 14 9 7 6 16 25
58 61 68 71 74 74 71 69 67 68 68 68 68 61 57 59 55 55 57 53 53 54 47 41 38 32 28 35 34 36 35 33 31 27 22 18 15 12 9 6 4 6 11
63 68 69 74 76 77 75 74 72 72 76 79 81 72 70 68 64 62 63 62 62 61 52 50 50 42 34 38 42 40 37 35 31 28 24 20 18 15 12 8 6 5 6
69 72 75 75 79 79 81 80 79 80 82 78 78 87 76 78 72 68 70 70 56 65 63 56 53 54 48 50 47 42 36 34 32 29 26 24 22 20 15 11 9 8 6
70 74 77 80 80 81 82 80 76 72 77 77 80 79 81 80 79 80 73 75 62 69 63 64 63 62 55 55 56 46 30 28 33 33 31 30 27 23 19 16 13 9 6
74 76 76 80 83 83 81 77 72 71 72 79 77 82 87 85 85 82 77 75 81 80 73 72 77 68 58 61 64 33 21 19 38 36 36 34 31 28 23 18 13 8 5
70 72 79 80 82 83 81 81 82 82 77 72 70 75 82 83 88 87 82 82 78 84 81 71 82 79 63 69 71 65 35 31 26 24 41 41 37 33 27 22 16 12 8
58 60 68 77 80 81 83 82 84 82 73 67 67 72 76 76 79 85 84 81 87 76 85 73 94 86 74 78 72 78 56 38 28 23 27 45 47 41 34 29 23 17 14
44 52 56 67 73 75 78 80 84 79 74 69 72 75 78 75 79 81 84 83 77 86 89 90 90 91 70 79 79 80 74 59 47 33 27 32 41 43 39 35 30 24 19
Wind_Direction_850mb
172 175 165 156 153 146 131 113 102 90 77 71 71 89 100 108 117 116 96 96 97 93 94 88 90 87 89 89 89 87 88 90 87 80 81 86 87 87 88 86 82 76 75
175 175 174 165 160 151 134 114 99 87 80 77 74 79 94 100 102 101 103 100 98 96 105 99 90 92 91 89 91 91 91 91 83 71 73 80 84 87 86 85 88 89 84
160 179 173 167 162 156 150 137 109 87 85 82 84 87 93 97 101 99 100 101 102 104 102 97 95 96 90 86 88 91 91 92 81 71 66 65 69 77 85 83 81 86 91
161 171 172 170 168 167 161 141 117 102 95 91 86 84 85 91 97 103 103 104 96 105 110 100 97 90 84 85 89 90 90 90 87 78 71 68 67 68 71 77 76 72 78
164 169 186 173 173 172 168 157 129 120 110 101 93 84 81 85 92 100 107 112 116 117 118 118 94 87 85 89 92 92 89 77 74 79 87 75 71 67 67 69 72 69 67
166 170 185 176 176 178 177 173 150 131 116 112 101 88 86 89 94 94 99 106 115 125 127 91 91 87 86 91 92 92 91 83 84 78 64 69 71 70 70 68 65 66 65
172 178 182 181 182 183 184 186 172 153 141 132 112 96 84 85 91 97 99 102 109 118 92 93 93 91 92 92 94 94 94 97 77 83 91 80 75 69 69 69 69 71 74
183 187 185 185 187 190 190 191 188 175 162 152 129 108 90 89 92 97 102 102 102 96 95 95 95 94 94 95 94 93 92 85 83 92 91 93 91 89 87 83 83 83 80
193 187 187 189 190 193 194 196 194 188 179 170 151 122 98 92 91 93 96 98 102 103 103 101 98 97 98 97 93 95 94 88 84 85 83 96 87 90 98 95 92 85 86
195 189 185 191 196 198 196 199 199 195 192 188 175 154 126 112 100 95 97 98 102 105 105 103 101 98 99 99 102 103 101 105 94 88 79 74 79 81 81 82 84 83 77
198 194 192 191 194 197 202 200 200 202 201 198 191 175 148 135 120 104 93 88 88 94 100 103 103 103 105 109 114 113 101 100 101 97 86 85 82 89 93 92 88 81 72
199 200 200 199 197 198 199 199 200 199 211 212 203 197 191 171 151 132 107 90 88 90 101 109 113 118 122 120 118 109 100 113 117 107 102 103 103 105 107 101 93 78 64
201 203 202 203 201 202 207 205 205 210 214 212 205 200 219 220 213 186 184 150 116 116 99 125 136 140 141 137 131 120 113 106 119 117 112 111 112 109 107 100 86 77 69
205 206 204 203 208 211 216 213 209 218 210 213 208 213 216 226 229 224 212 219 204 191 140 158 169 159 155 152 146 140 130 123 128 118 116 108 105 100 90 85 78 73 70
210 208 212 207 208 209 213 213 217 222 219 218 222 229 227 223 225 226 221 224 223 219 239 245 216 200 181 171 163 158 151 141 138 139 137 132 124 117 96 86 78 77 70
213 212 211 215 219 212 216 219 227 224 228 228 226 223 225 226 224 232 231 227 226 217 216 206 208 212 198 188 178 167 161 152 145 146 150 153 149 127 99 92 87 78 72
218 216 215 220 220 218 217 219 221 226 231 233 229 227 227 227 229 227 235 229 229 223 218 222 211 214 223 201 190 176 171 164 159 154 153 157 162 152 121 97 87 80 73
220 218 220 226 225 224 222 221 224 221 231 228 228 226 233 231 232 232 231 236 234 226 225 221 221 221 230 194 193 184 176 171 168 168 168 166 161 154 153 136 119 89 82
221 222 224 229 228 229 227 227 229 229 230 231 233 237 237 237 238 237 236 235 234 228 225 225 226 221 236 208 197 188 179 176 177 177 176 178 177 173 179 175 132 95 94
226 227 228 230 231 230 230 230 233 232 234 234 228 232 235 240 240 238 239 241 241 228 230 231 230 219 219 209 199 189 184 182 183 184 185 188 189 192 195 190 163 132 103
232 231 230 228 231 228 229 231 232 234 239 237 235 228 232 235 239 237 239 242 246 224 230 235 223 213 209 207 205 184 183 189 193 194 196 198 200 202 201 193 186 177 155
237 236 233 232 232 231 233 235 235 236 242 242 238 232 227 232 235 237 238 243 249 225 237 242 221 206 211 217 209 185 179 197 202 203 205 208 209 209 206 200 194 185 163
236 234 237 237 235 235 233 233 233 235 239 242 240 234 231 228 232 232 235 239 250 231 239 229 221 224 225 214 213 192 178 202 205 213 214 215 215 215 211 207 202 198 190
250 244 239 237 235 235 234 232 234 239 242 248 244 238 235 234 230 234 231 232 241 223 245 230 229 224 228 225 210 206 202 204 179 190 218 218 219 220 219 215 213 213 217
247 244 238 235 233 232 232 233 236 240 242 244 241 241 236 233 226 230 234 233 229 236 243 238 223 231 226 223 227 214 207 209 211 203 201 213 217 219 220 219 220 221 226
234 238 236 232 231 229 231 232 235 238 237 238 242 241 238 233 230 231 236 234 233 242 239 236 230 227 229 230 225 222 219 219 222 215 218 221 216 219 219 221 222 225 230